Other Public Products
Issued by NWS Charleston, SC

Current Version | Previous Version | Text Only | Print | Product List | Glossary Off
Versions: 1 2 3 4 5 6 7 8 9 10 11 12 13 14 15 16 17 18 19 20 21 22 23 24 25 26 27 28 29 30 31 32 33 34 35 36 37 38 39 40 41 42 43 44 45 46 47 48 49 50

835
FPUS82 KCHS 180412
OPUCHS

TEST...KCHS/KSAV Gateway Observations...TEST
National Weather Service Charleston SC
1100 PM EST FRI NOV 17 2017

NOTE: "fair" indicates few or no clouds below 12,000 feet with no
significant weather and/or obstructions to visibility.

SCZ050-WAZ558-NCZ071-TXZ119-213-PAZ071-DCZ001-FLZ074-172-MI076-
NYZ176-178-MAZ016-IL014-TNZ027-NJZ106-GAZ044-MD014-180500-

...Gateway Observations for Charleston International...

CITY           SKY/WX    TMP DP  RH WIND       PRES   REMARKS
Chas Airport   CLEAR     46  44  93 CALM      30.16S
Seattle        CLOUDY    44  38  79 S12       30.27R
Charlotte      PTCLDY    47  34  60 S7        30.13F
Dallas DFW     PTCLDY    77  64  64 S21       29.70F
Dallas Love    PTCLDY    77  63  61 S12       29.72F
Philladelphia  CLOUDY    39  27  62 SW3       30.11F
Wash National  CLOUDY    40  31  70 SW6       30.12F WCI  36
Baltimore      CLOUDY    33  29  85 W3        30.10F
Miami          MOCLDY    72  58  61 NE3       30.03S
Detroit        CLOUDY    44  34  67 SE13      29.73F
Newark         PTCLDY    38  17  42 W7        30.08F WCI  33
Laguardia      PTCLDY    41  16  36 W7        30.07F
J F K          PTCLDY    39  17  41 NW9       30.09F WCI  33
Boston Logan   CLEAR     35  13  40 NW10      29.99S WCI  27
Ft. Lauderdale PTCLDY    73  59  61 E9        30.02S
Chicago O`Hare LGT RAIN  46  43  89 SW15      29.58F FOG
Chicago Midway LGT RAIN  47  45  93 SW13      29.59F FOG
Houston Bush   PTCLDY    74  69  85 S10       29.91S
Houston Hobby  PTCLDY    71  70  96 S9        29.91F
Nashville      CLOUDY    60  34  37 S18       29.90F
Atlanta        PTCLDY    53  44  71 SE3       30.09S

$$

GAZ044-118-TXZ119-213-NCZ071-DCZ001-MDZ014-506-PAZ021-071-NJZ106-
NYZ176-178-MAZ106-OHZ011-021-055-MIZ076-KYZ091-ILZ014-INZ047-
MNZ060-ONZ431-180500-

...Gateway Observations for Savannah International...

CITY           SKY/WX    TMP DP  RH WIND       PRES   REMARKS
Savannah Arpt  PTCLDY    50  48  93 CALM      30.14S
Atlanta        PTCLDY    53  44  71 SE3       30.09S
Charlotte      PTCLDY    47  34  60 S7        30.13F
Dallas DFW     PTCLDY    77  64  64 S21       29.70F
Houston Bush   PTCLDY    74  69  85 S10       29.91S
Wash National  CLOUDY    40  31  70 SW6       30.12F WCI  36
Wash Dulles    CLOUDY    34  30  85 CALM      30.11S
Baltimore      CLOUDY    33  29  85 W3        30.10F
Philadelphia   CLOUDY    39  27  62 SW3       30.11F
Newark         PTCLDY    38  17  42 W7        30.08F WCI  33
Laguardia      PTCLDY    41  16  36 W7        30.07F
J F K          PTCLDY    39  17  41 NW9       30.09F WCI  33
Boston         CLEAR     35  13  40 NW10      29.99S WCI  27
Pittsburg      CLOUDY    34  28  79 SE3       29.93F
Akron          CLOUDY    39  28  64 S10       29.87F WCI  32
Cleveland      CLOUDY    44  29  55 S15       29.84F
Cincinnati     CLOUDY    49  35  58 S16       29.80F
Columbus       CLOUDY    43  32  63 S9        29.85F
Detroit        CLOUDY    44  34  67 SE13      29.73F
Chicago O`Hare LGT RAIN  46  43  89 SW15      29.58F FOG
Minneapolis    CLOUDY    37  35  92 VRB7      29.67R WCI  32
Indianapolis   LGT RAIN  47  41  80 S14       29.72F
Toronto Canada MOCLDY    36  28  75 SE9       29.88F WCI  29

$$




USA.gov is the U.S. government's official web portal to all federal, state and local government web resources and services.